| time (UTC) | temp F | wind direction | speed MPH | gust MPH | rain 1hr in | rain 24hr in | rain mn in | humidity % | barometer mb |
| 20260905235508 | 91 | 134 | 3.0 | 10.0 | 0.00 | 0.00 | 0.00 | 64 | 1011.5 |
| 20260905235009 | 91 | 35 | 3.0 | 10.0 | 0.00 | 0.00 | 0.00 | 64 | 1011.5 |
| 20260905234509 | 91 | 129 | 3.0 | 9.0 | 0.00 | 0.00 | 0.00 | 64 | 1011.5 |
| 20260905233509 | 91 | 143 | 3.0 | 9.0 | 0.00 | 0.00 | 0.00 | 64 | 1011.5 |
| 20260905233009 | 92 | 146 | 3.0 | 9.0 | 0.00 | 0.00 | 0.00 | 64 | 1011.4 |
| 20260905232509 | 92 | 129 | 1.0 | 7.0 | 0.00 | 0.00 | 0.00 | 64 | 1011.5 |
| 20260905232009 | 92 | 136 | 2.0 | 7.0 | 0.00 | 0.00 | 0.00 | 63 | 1011.5 |
| 20260905231509 | 92 | 162 | 2.0 | 6.0 | 0.00 | 0.00 | 0.00 | 62 | 1011.5 |
| 20260905231009 | 92 | 137 | 2.0 | 6.0 | 0.00 | 0.00 | 0.00 | 63 | 1011.5 |
| 20260905230509 | 92 | 109 | 3.0 | 6.0 | 0.00 | 0.00 | 0.00 | 62 | 1011.5 |
| 20260905225009 | 92 | 162 | 2.0 | 6.0 | 0.00 | 0.00 | 0.00 | 62 | 1011.4 |
| 20260905224509 | 92 | 120 | 2.0 | 6.0 | 0.00 | 0.00 | 0.00 | 62 | 1011.4 |
| 20260905224010 | 92 | 95 | 1.0 | 7.0 | 0.00 | 0.00 | 0.00 | 63 | 1011.3 |
| 20260905223509 | 92 | 102 | 1.0 | 9.0 | 0.00 | 0.00 | 0.00 | 62 | 1011.1 |
| 20260905223009 | 92 | 152 | 4.0 | 10.0 | 0.00 | 0.00 | 0.00 | 62 | 1011.0 |
| 20260905220510 | 92 | 115 | 2.0 | 13.0 | 0.00 | 0.00 | 0.00 | 62 | 1010.9 |
| 20260905220009 | 92 | 142 | 5.0 | 13.0 | 0.00 | 0.00 | 0.00 | 61 | 1010.9 |
| 20260905215510 | 92 | 185 | 4.0 | 12.0 | 0.00 | 0.00 | 0.00 | 61 | 1011.0 |
| 20260905215009 | 92 | 205 | 5.0 | 10.0 | 0.00 | 0.00 | 0.00 | 61 | 1011.0 |
| 20260905214510 | 92 | 156 | 4.0 | 12.0 | 0.00 | 0.00 | 0.00 | 60 | 1011.0 |
| 20260905213509 | 92 | 160 | 4.0 | 12.0 | 0.00 | 0.00 | 0.00 | 61 | 1011.3 |
| 20260905213010 | 92 | 141 | 3.0 | 10.0 | 0.00 | 0.00 | 0.00 | 61 | 1011.4 |
| 20260905212510 | 92 | 154 | 5.0 | 12.0 | 0.00 | 0.00 | 0.00 | 60 | 1011.4 |
| 20260905212010 | 92 | 170 | 2.0 | 13.0 | 0.00 | 0.00 | 0.00 | 61 | 1011.5 |
| 20260905211510 | 92 | 143 | 6.0 | 13.0 | 0.00 | 0.00 | 0.00 | 60 | 1011.5 |
| 20260905211010 | 91 | 173 | 2.0 | 12.0 | 0.00 | 0.00 | 0.00 | 60 | 1011.5 |
| 20260905210510 | 91 | 138 | 1.0 | 12.0 | 0.00 | 0.00 | 0.00 | 60 | 1011.7 |
| 20260905210010 | 91 | 152 | 5.0 | 12.0 | 0.00 | 0.00 | 0.00 | 60 | 1011.7 |
| 20260905205510 | 91 | 72 | 3.0 | 12.0 | 0.00 | 0.00 | 0.00 | 60 | 1012.0 |
| 20260905205010 | 91 | 142 | 2.0 | 12.0 | 0.00 | 0.00 | 0.00 | 61 | 1012.1 |
| 20260905204510 | 91 | 138 | 4.0 | 12.0 | 0.00 | 0.00 | 0.00 | 61 | 1012.2 |
| 20260905204010 | 91 | 76 | 3.0 | 9.0 | 0.00 | 0.00 | 0.00 | 60 | 1012.5 |
| 20260905203510 | 90 | 78 | 2.0 | 7.0 | 0.00 | 0.00 | 0.00 | 60 | 1012.7 |
| 20260905203010 | 91 | 113 | 3.0 | 10.0 | 0.00 | 0.00 | 0.00 | 60 | 1012.7 |
| 20260905202010 | 91 | 132 | 3.0 | 10.0 | 0.00 | 0.00 | 0.00 | 60 | 1012.9 |
| 20260905201010 | 90 | 136 | 2.0 | 10.0 | 0.00 | 0.00 | 0.00 | 59 | 1013.2 |
| 20260905200010 | 90 | 86 | 4.0 | 12.0 | 0.00 | 0.00 | 0.00 | 59 | 1013.5 |
| 20260905195510 | 90 | 123 | 3.0 | 10.0 | 0.00 | 0.00 | 0.00 | 60 | 1013.6 |
| 20260905195010 | 90 | 70 | 3.0 | 9.0 | 0.00 | 0.00 | 0.00 | 59 | 1013.7 |
| 20260905194510 | 90 | 213 | 3.0 | 10.0 | 0.00 | 0.00 | 0.00 | 59 | 1013.7 |
| 20260905194010 | 90 | 59 | 3.0 | 10.0 | 0.00 | 0.00 | 0.00 | 58 | 1013.7 |
| 20260905193510 | 90 | 11 | 5.0 | 10.0 | 0.00 | 0.00 | 0.00 | 57 | 1013.8 |
| 20260905193010 | 89 | 52 | 2.0 | 14.0 | 0.00 | 0.00 | 0.00 | 59 | 1013.8 |
| 20260905192509 | 89 | 96 | 3.0 | 14.0 | 0.00 | 0.00 | 0.00 | 59 | 1014.0 |
| 20260905192009 | 89 | 134 | 4.0 | 12.0 | 0.00 | 0.00 | 0.00 | 59 | 1014.1 |
| 20260905191509 | 89 | 132 | 2.0 | 10.0 | 0.00 | 0.00 | 0.00 | 60 | 1014.1 |
| 20260905190509 | 89 | 136 | 4.0 | 12.0 | 0.00 | 0.00 | 0.00 | 61 | 1014.3 |
| 20260905185509 | 89 | 93 | 2.0 | 12.0 | 0.00 | 0.00 | 0.00 | 62 | 1014.6 |
| 20260905185009 | 89 | 24 | 6.0 | 13.0 | 0.00 | 0.00 | 0.00 | 61 | 1014.7 |
| 20260905184509 | 89 | 38 | 5.0 | 13.0 | 0.00 | 0.00 | 0.00 | 63 | 1014.8 |
| 20260905184009 | 89 | 350 | 5.0 | 13.0 | 0.00 | 0.00 | 0.00 | 63 | 1014.9 |
| 20260905183509 | 89 | 53 | 4.0 | 13.0 | 0.00 | 0.00 | 0.00 | 64 | 1015.1 |
| 20260905183009 | 89 | 71 | 5.0 | 15.0 | 0.00 | 0.00 | 0.00 | 63 | 1015.2 |
| 20260905182009 | 88 | 265 | 5.0 | 12.0 | 0.00 | 0.00 | 0.00 | 64 | 1015.2 |
| 20260905181509 | 88 | 41 | 5.0 | 12.0 | 0.00 | 0.00 | 0.00 | 64 | 1015.2 |
| 20260905181009 | 88 | 83 | 6.0 | 13.0 | 0.00 | 0.00 | 0.00 | 65 | 1015.3 |
| 20260905180510 | 88 | 53 | 5.0 | 14.0 | 0.00 | 0.00 | 0.00 | 67 | 1015.2 |
| 20260905180012 | 88 | 49 | 8.0 | 17.0 | 0.00 | 0.00 | 0.00 | 67 | 1015.2 |
| 20260905175508 | 88 | 36 | 6.0 | 17.0 | 0.00 | 0.00 | 0.00 | 66 | 1015.3 |
| 20260905175009 | 88 | 61 | 4.0 | 13.0 | 0.00 | 0.00 | 0.00 | 68 | 1015.2 |
| 20260905174509 | 88 | 78 | 6.0 | 14.0 | 0.00 | 0.00 | 0.00 | 67 | 1015.2 |
| 20260905174009 | 88 | 49 | 7.0 | 14.0 | 0.00 | 0.00 | 0.00 | 68 | 1015.2 |
| 20260905173509 | 88 | 20 | 5.0 | 15.0 | 0.00 | 0.00 | 0.00 | 68 | 1015.1 |
| 20260905173009 | 88 | 42 | 8.0 | 15.0 | 0.00 | 0.00 | 0.00 | 68 | 1015.2 |
| 20260905172509 | 87 | 350 | 5.0 | 14.0 | 0.00 | 0.00 | 0.00 | 68 | 1015.2 |
| 20260905172009 | 87 | 10 | 5.0 | 14.0 | 0.00 | 0.00 | 0.00 | 68 | 1015.2 |
| 20260905171510 | 87 | 71 | 7.0 | 15.0 | 0.00 | 0.00 | 0.00 | 68 | 1015.2 |
| 20260905171009 | 87 | 329 | 7.0 | 15.0 | 0.00 | 0.00 | 0.00 | 68 | 1015.2 |
| 20260905170509 | 87 | 9 | 6.0 | 15.0 | 0.00 | 0.00 | 0.00 | 68 | 1015.1 |
| 20260905170010 | 87 | 4 | 7.0 | 15.0 | 0.00 | 0.00 | 0.00 | 67 | 1015.2 |
| 20260905165509 | 87 | 350 | 6.0 | 13.0 | 0.00 | 0.00 | 0.00 | 68 | 1015.1 |
| 20260905165010 | 87 | 24 | 5.0 | 17.0 | 0.00 | 0.00 | 0.00 | 70 | 1015.1 |
| 20260905164510 | 87 | 331 | 9.0 | 17.0 | 0.00 | 0.00 | 0.00 | 70 | 1015.1 |
| 20260905163510 | 87 | 338 | 5.0 | 12.0 | 0.00 | 0.00 | 0.00 | 72 | 1015.0 |
| 20260905163010 | 87 | 346 | 6.0 | 12.0 | 0.00 | 0.00 | 0.00 | 71 | 1015.2 |
| 20260905162509 | 87 | 320 | 5.0 | 14.0 | 0.00 | 0.00 | 0.00 | 72 | 1015.2 |
| 20260905162010 | 87 | 311 | 5.0 | 17.0 | 0.00 | 0.00 | 0.00 | 72 | 1015.2 |
| 20260905161510 | 87 | 342 | 9.0 | 17.0 | 0.00 | 0.00 | 0.00 | 72 | 1015.2 |
| 20260905160010 | 86 | 5 | 3.0 | 7.0 | 0.00 | 0.00 | 0.00 | 72 | 1014.7 |
| 20260905155510 | 86 | 340 | 3.0 | 6.0 | 0.00 | 0.00 | 0.00 | 72 | 1014.7 |
| 20260905155010 | 86 | 325 | 3.0 | 6.0 | 0.00 | 0.00 | 0.00 | 72 | 1014.6 |
| 20260905154510 | 85 | 330 | 3.0 | 5.0 | 0.00 | 0.00 | 0.00 | 72 | 1014.6 |
| 20260905154010 | 85 | 334 | 2.0 | 5.0 | 0.00 | 0.00 | 0.00 | 72 | 1014.6 |
| 20260905153510 | 85 | 23 | 2.0 | 5.0 | 0.00 | 0.00 | 0.00 | 72 | 1014.6 |
| 20260905152510 | 85 | 343 | 1.0 | 3.0 | 0.00 | 0.00 | 0.00 | 70 | 1014.4 |
| 20260905152010 | 85 | 38 | 1.0 | 3.0 | 0.00 | 0.00 | 0.00 | 71 | 1014.3 |
| 20260905151510 | 84 | 49 | 3.0 | 3.0 | 0.00 | 0.00 | 0.00 | 71 | 1014.3 |
| 20260905151010 | 84 | 45 | 1.0 | 2.0 | 0.00 | 0.00 | 0.00 | 72 | 1014.2 |
| 20260905150510 | 84 | 45 | 1.0 | 2.0 | 0.00 | 0.00 | 0.00 | 72 | 1014.2 |
| 20260905150010 | 83 | 152 | 0.0 | 3.0 | 0.00 | 0.00 | 0.00 | 74 | 1014.2 |
| 20260905145510 | 83 | 1 | 2.0 | 3.0 | 0.00 | 0.00 | 0.00 | 74 | 1014.0 |
| 20260905145010 | 82 | 0 | 2.0 | 3.0 | 0.00 | 0.00 | 0.00 | 75 | 1014.0 |
| 20260905144513 | 82 | 342 | 0.0 | 3.0 | 0.00 | 0.00 | 0.00 | 76 | 1014.0 |
| 20260905144010 | 82 | 342 | 1.0 | 3.0 | 0.00 | 0.00 | 0.00 | 76 | 1013.8 |
| 20260905143509 | 81 | 346 | 1.0 | 3.0 | 0.00 | 0.00 | 0.00 | 78 | 1013.7 |
| 20260905143009 | 81 | 69 | 0.0 | 3.0 | 0.00 | 0.00 | 0.00 | 79 | 1013.7 |
| 20260905142509 | 80 | 176 | 1.0 | 3.0 | 0.00 | 0.00 | 0.00 | 80 | 1013.6 |
| 20260905141509 | 79 | 0 | 1.0 | 3.0 | 0.00 | 0.00 | 0.00 | 83 | 1013.7 |
| 20260905141009 | 79 | 29 | 0.0 | 3.0 | 0.00 | 0.00 | 0.00 | 84 | 1013.7 |
| 20260905140509 | 78 | 57 | 1.0 | 3.0 | 0.00 | 0.00 | 0.00 | 85 | 1013.3 |
| 20260905140009 | 78 | 146 | 1.0 | 3.0 | 0.00 | 0.00 | 0.00 | 85 | 1013.2 |
| 20260905135509 | 77 | 127 | 1.0 | 3.0 | 0.00 | 0.00 | 0.00 | 85 | 1013.2 |
| 20260905135009 | 77 | 134 | 2.0 | 3.0 | 0.00 | 0.00 | 0.00 | 86 | 1013.2 |
| 20260905134009 | 76 | 317 | 0.0 | 3.0 | 0.00 | 0.00 | 0.00 | 87 | 1013.7 |
| 20260905133509 | 76 | 320 | 1.0 | 3.0 | 0.00 | 0.00 | 0.00 | 87 | 1013.8 |
| 20260905133009 | 76 | 124 | 1.0 | 2.0 | 0.00 | 0.00 | 0.00 | 88 | 1013.8 |
| 20260905132509 | 76 | 123 | 1.0 | 2.0 | 0.00 | 0.00 | 0.00 | 88 | 1013.6 |
| 20260905132009 | 75 | 124 | 1.0 | 2.0 | 0.00 | 0.00 | 0.00 | 88 | 1013.4 |
| 20260905131510 | 75 | 123 | 0.0 | 0.0 | 0.00 | 0.00 | 0.00 | 88 | 1013.3 |
| 20260905131009 | 75 | 123 | 0.0 | 0.0 | 0.00 | 0.00 | 0.00 | 88 | 1013.2 |
| 20260905130008 | 75 | 134 | 0.0 | 0.0 | 0.00 | 0.00 | 0.00 | 87 | 1013.1 |
| 20260905125509 | 75 | 134 | 0.0 | 0.0 | 0.00 | 0.00 | 0.00 | 87 | 1013.1 |
| 20260905125009 | 75 | 134 | 0.0 | 0.0 | 0.00 | 0.00 | 0.00 | 87 | 1012.9 |
| 20260905124509 | 75 | 134 | 0.0 | 0.0 | 0.00 | 0.00 | 0.00 | 87 | 1012.9 |
| 20260905124009 | 75 | 134 | 0.0 | 0.0 | 0.00 | 0.00 | 0.00 | 87 | 1012.8 |
| 20260905123509 | 75 | 134 | 0.0 | 0.0 | 0.00 | 0.00 | 0.00 | 87 | 1012.8 |
| 20260905123009 | 75 | 134 | 0.0 | 0.0 | 0.00 | 0.00 | 0.00 | 87 | 1012.8 |
| 20260905122509 | 75 | 133 | 0.0 | 0.0 | 0.00 | 0.00 | 0.00 | 87 | 1012.7 |
| 20260905121009 | 75 | 134 | 0.0 | 0.0 | 0.00 | 0.00 | 0.00 | 87 | 1012.4 |
| 20260905120509 | 75 | 134 | 0.0 | 0.0 | 0.00 | 0.00 | 0.00 | 87 | 1012.3 |
| 20260905120010 | 75 | 134 | 0.0 | 0.0 | 0.00 | 0.00 | 0.00 | 87 | 1012.2 |
| 20260905115509 | 75 | 134 | 0.0 | 0.0 | 0.00 | 0.00 | 0.00 | 86 | 1012.1 |
| 20260905114510 | 75 | 134 | 0.0 | 0.0 | 0.00 | 0.00 | 0.00 | 86 | 1012.1 |
| 20260905114009 | 75 | 134 | 0.0 | 0.0 | 0.00 | 0.00 | 0.00 | 86 | 1012.4 |
| 20260905113509 | 75 | 134 | 0.0 | 0.0 | 0.00 | 0.00 | 0.00 | 86 | 1012.4 |
| 20260905113010 | 75 | 134 | 0.0 | 0.0 | 0.00 | 0.00 | 0.00 | 86 | 1012.3 |
| 20260905112509 | 75 | 134 | 0.0 | 0.0 | 0.00 | 0.00 | 0.00 | 86 | 1012.3 |
| 20260905112009 | 75 | 133 | 0.0 | 0.0 | 0.00 | 0.00 | 0.00 | 86 | 1012.2 |
| 20260905111510 | 75 | 134 | 0.0 | 1.0 | 0.00 | 0.00 | 0.00 | 86 | 1012.1 |
| 20260905111010 | 75 | 134 | 0.0 | 1.0 | 0.00 | 0.00 | 0.00 | 86 | 1012.2 |
| 20260905110009 | 76 | 134 | 0.0 | 0.0 | 0.00 | 0.00 | 0.00 | 86 | 1012.0 |
| 20260905105010 | 76 | 134 | 0.0 | 0.0 | 0.00 | 0.00 | 0.00 | 86 | 1012.1 |
| 20260905104510 | 76 | 134 | 0.0 | 0.0 | 0.00 | 0.00 | 0.00 | 86 | 1012.0 |
| 20260905104010 | 76 | 134 | 0.0 | 0.0 | 0.00 | 0.00 | 0.00 | 86 | 1011.9 |
| 20260905103509 | 76 | 134 | 0.0 | 0.0 | 0.00 | 0.00 | 0.00 | 86 | 1011.7 |
| 20260905103010 | 76 | 134 | 0.0 | 0.0 | 0.00 | 0.00 | 0.00 | 86 | 1011.7 |
| 20260905102509 | 76 | 134 | 0.0 | 0.0 | 0.00 | 0.00 | 0.00 | 86 | 1011.7 |
| 20260905102010 | 76 | 134 | 0.0 | 0.0 | 0.00 | 0.00 | 0.00 | 86 | 1011.7 |
| 20260905101510 | 76 | 134 | 0.0 | 0.0 | 0.00 | 0.00 | 0.00 | 86 | 1011.7 |
| 20260905101010 | 76 | 134 | 0.0 | 0.0 | 0.00 | 0.00 | 0.00 | 86 | 1011.6 |
| 20260905100510 | 76 | 134 | 0.0 | 0.0 | 0.00 | 0.00 | 0.00 | 86 | 1011.6 |
| 20260905100010 | 76 | 134 | 0.0 | 0.0 | 0.00 | 0.00 | 0.00 | 86 | 1011.5 |
| 20260905095009 | 77 | 134 | 0.0 | 1.0 | 0.00 | 0.00 | 0.00 | 86 | 1011.4 |
| 20260905094509 | 77 | 134 | 0.0 | 2.0 | 0.00 | 0.00 | 0.00 | 86 | 1011.4 |
| 20260905094009 | 77 | 133 | 1.0 | 3.0 | 0.00 | 0.00 | 0.00 | 86 | 1011.4 |
| 20260905093508 | 77 | 134 | 0.0 | 3.0 | 0.00 | 0.00 | 0.00 | 86 | 1011.3 |
| 20260905092509 | 77 | 134 | 1.0 | 2.0 | 0.00 | 0.00 | 0.00 | 85 | 1011.2 |
| 20260905092009 | 77 | 133 | 0.0 | 1.0 | 0.00 | 0.00 | 0.00 | 85 | 1011.3 |
| 20260905091509 | 77 | 134 | 0.0 | 2.0 | 0.00 | 0.00 | 0.00 | 85 | 1011.2 |
| 20260905091009 | 77 | 134 | 0.0 | 2.0 | 0.00 | 0.00 | 0.00 | 85 | 1011.3 |
| 20260905090509 | 77 | 134 | 0.0 | 2.0 | 0.00 | 0.00 | 0.00 | 84 | 1011.4 |
| 20260905090009 | 77 | 133 | 0.0 | 2.0 | 0.00 | 0.00 | 0.00 | 84 | 1011.3 |
| 20260905085509 | 77 | 134 | 0.0 | 0.0 | 0.00 | 0.00 | 0.00 | 84 | 1011.3 |
| 20260905085009 | 77 | 134 | 0.0 | 0.0 | 0.00 | 0.00 | 0.00 | 84 | 1011.4 |
| 20260905084509 | 77 | 134 | 0.0 | 1.0 | 0.00 | 0.00 | 0.00 | 84 | 1011.4 |
| 20260905083509 | 78 | 134 | 0.0 | 2.0 | 0.00 | 0.00 | 0.00 | 84 | 1011.4 |
| 20260905083010 | 78 | 134 | 0.0 | 1.0 | 0.00 | 0.00 | 0.00 | 84 | 1011.4 |
| 20260905082509 | 78 | 134 | 0.0 | 2.0 | 0.00 | 0.00 | 0.00 | 84 | 1011.4 |
| 20260905082009 | 78 | 134 | 0.0 | 2.0 | 0.00 | 0.00 | 0.00 | 84 | 1011.5 |
| 20260905081510 | 78 | 134 | 0.0 | 1.0 | 0.00 | 0.00 | 0.00 | 84 | 1011.5 |
| 20260905081009 | 78 | 134 | 0.0 | 1.0 | 0.00 | 0.00 | 0.00 | 84 | 1011.6 |
| 20260905080010 | 78 | 134 | 0.0 | 0.0 | 0.00 | 0.00 | 0.00 | 84 | 1011.7 |
| 20260905075509 | 78 | 134 | 0.0 | 0.0 | 0.00 | 0.00 | 0.00 | 84 | 1011.8 |
| 20260905075009 | 79 | 134 | 0.0 | 0.0 | 0.00 | 0.00 | 0.00 | 83 | 1011.8 |
| 20260905074509 | 79 | 134 | 0.0 | 0.0 | 0.00 | 0.00 | 0.00 | 83 | 1011.9 |
| 20260905074009 | 79 | 134 | 0.0 | 0.0 | 0.00 | 0.00 | 0.00 | 83 | 1011.9 |
| 20260905073509 | 79 | 134 | 0.0 | 0.0 | 0.00 | 0.00 | 0.00 | 83 | 1011.9 |
| 20260905073010 | 79 | 134 | 0.0 | 0.0 | 0.00 | 0.00 | 0.00 | 83 | 1011.9 |
| 20260905072509 | 79 | 134 | 0.0 | 0.0 | 0.00 | 0.00 | 0.00 | 83 | 1011.9 |
| 20260905071510 | 79 | 134 | 0.0 | 0.0 | 0.00 | 0.00 | 0.00 | 83 | 1011.9 |
| 20260905071010 | 79 | 134 | 0.0 | 0.0 | 0.00 | 0.00 | 0.00 | 82 | 1011.9 |
| 20260905070509 | 79 | 134 | 0.0 | 0.0 | 0.00 | 0.00 | 0.00 | 82 | 1011.9 |
| 20260905065510 | 80 | 134 | 0.0 | 0.0 | 0.00 | 0.00 | 0.00 | 82 | 1012.0 |
| 20260905064510 | 80 | 134 | 0.0 | 0.0 | 0.00 | 0.00 | 0.00 | 81 | 1012.0 |
| 20260905064010 | 80 | 134 | 0.0 | 0.0 | 0.00 | 0.00 | 0.00 | 81 | 1012.0 |
| 20260905063510 | 80 | 133 | 0.0 | 0.0 | 0.00 | 0.00 | 0.00 | 81 | 1012.0 |
| 20260905063010 | 80 | 133 | 0.0 | 0.0 | 0.00 | 0.00 | 0.00 | 81 | 1012.1 |
| 20260905062510 | 80 | 134 | 0.0 | 0.0 | 0.00 | 0.00 | 0.00 | 81 | 1012.1 |
| 20260905062010 | 80 | 134 | 0.0 | 0.0 | 0.00 | 0.00 | 0.00 | 81 | 1012.2 |
| 20260905061510 | 81 | 133 | 0.0 | 1.0 | 0.00 | 0.00 | 0.00 | 81 | 1012.2 |
| 20260905061010 | 81 | 133 | 0.0 | 1.0 | 0.00 | 0.00 | 0.00 | 81 | 1012.1 |
| 20260905060510 | 81 | 133 | 0.0 | 0.0 | 0.00 | 0.00 | 0.00 | 80 | 1012.2 |
| 20260905060009 | 81 | 133 | 0.0 | 0.0 | 0.00 | 0.00 | 0.00 | 79 | 1012.2 |
| 20260905055010 | 81 | 123 | 0.0 | 0.0 | 0.00 | 0.00 | 0.00 | 79 | 1012.2 |
| 20260905054510 | 81 | 122 | 0.0 | 1.0 | 0.00 | 0.00 | 0.00 | 79 | 1012.2 |
| 20260905053010 | 82 | 123 | 0.0 | 1.0 | 0.00 | 0.00 | 0.00 | 78 | 1011.9 |
| 20260905052510 | 82 | 122 | 0.0 | 1.0 | 0.00 | 0.00 | 0.00 | 78 | 1011.8 |
| 20260905052010 | 82 | 123 | 0.0 | 0.0 | 0.00 | 0.00 | 0.00 | 78 | 1011.8 |
| 20260905051510 | 82 | 122 | 0.0 | 1.0 | 0.00 | 0.00 | 0.00 | 78 | 1011.9 |
| 20260905051010 | 83 | 123 | 0.0 | 2.0 | 0.00 | 0.00 | 0.00 | 78 | 1011.8 |
| 20260905050510 | 83 | 123 | 0.0 | 2.0 | 0.00 | 0.00 | 0.00 | 78 | 1011.9 |
| 20260905050010 | 83 | 122 | 0.0 | 1.0 | 0.00 | 0.00 | 0.00 | 77 | 1011.9 |
| 20260905045010 | 83 | 121 | 0.0 | 0.0 | 0.00 | 0.00 | 0.00 | 76 | 1011.8 |
| 20260905044510 | 83 | 118 | 0.0 | 0.0 | 0.00 | 0.00 | 0.00 | 76 | 1011.8 |
| 20260905044010 | 83 | 119 | 0.0 | 0.0 | 0.00 | 0.00 | 0.00 | 76 | 1011.7 |
| 20260905043509 | 84 | 120 | 0.0 | 0.0 | 0.00 | 0.00 | 0.00 | 76 | 1011.6 |
| 20260905043009 | 84 | 127 | 0.0 | 0.0 | 0.00 | 0.00 | 0.00 | 76 | 1011.5 |
| 20260905042009 | 84 | 131 | 0.0 | 0.0 | 0.00 | 0.00 | 0.00 | 76 | 1011.3 |
| 20260905041009 | 85 | 133 | 0.0 | 0.0 | 0.00 | 0.00 | 0.00 | 74 | 1011.3 |
| 20260905035509 | 85 | 133 | 0.0 | 1.0 | 0.00 | 0.00 | 0.00 | 74 | 1011.5 |
| 20260905035009 | 85 | 133 | 0.0 | 0.0 | 0.00 | 0.00 | 0.00 | 74 | 1011.5 |
| 20260905034509 | 86 | 133 | 0.0 | 0.0 | 0.00 | 0.00 | 0.00 | 74 | 1011.4 |
| 20260905034009 | 86 | 133 | 0.0 | 2.0 | 0.00 | 0.00 | 0.00 | 74 | 1011.4 |
| 20260905033509 | 86 | 133 | 0.0 | 2.0 | 0.00 | 0.00 | 0.00 | 74 | 1011.3 |
| 20260905033009 | 86 | 133 | 0.0 | 2.0 | 0.00 | 0.00 | 0.00 | 74 | 1011.3 |
| 20260905032509 | 86 | 133 | 0.0 | 2.0 | 0.00 | 0.00 | 0.00 | 74 | 1011.3 |
| 20260905032009 | 86 | 133 | 1.0 | 3.0 | 0.00 | 0.00 | 0.00 | 74 | 1011.3 |
| 20260905031510 | 86 | 130 | 1.0 | 3.0 | 0.00 | 0.00 | 0.00 | 74 | 1011.2 |
| 20260905031009 | 87 | 124 | 1.0 | 2.0 | 0.00 | 0.00 | 0.00 | 74 | 1011.1 |
| 20260905030509 | 87 | 142 | 1.0 | 3.0 | 0.00 | 0.00 | 0.00 | 74 | 1011.0 |
| 20260905030010 | 87 | 142 | 0.0 | 3.0 | 0.00 | 0.00 | 0.00 | 74 | 1011.0 |
| 20260905025509 | 87 | 142 | 1.0 | 3.0 | 0.00 | 0.00 | 0.00 | 74 | 1010.9 |
| 20260905024510 | 87 | 161 | 0.0 | 2.0 | 0.00 | 0.00 | 0.00 | 73 | 1010.8 |
| 20260905023509 | 87 | 160 | 0.0 | 2.0 | 0.00 | 0.00 | 0.00 | 73 | 1010.9 |
| 20260905023010 | 88 | 166 | 1.0 | 2.0 | 0.00 | 0.00 | 0.00 | 73 | 1010.9 |
| 20260905022009 | 88 | 126 | 0.0 | 0.0 | 0.00 | 0.00 | 0.00 | 71 | 1010.9 |
| 20260905021510 | 88 | 126 | 0.0 | 0.0 | 0.00 | 0.00 | 0.00 | 71 | 1010.9 |
| 20260905021009 | 89 | 126 | 0.0 | 0.0 | 0.00 | 0.00 | 0.00 | 71 | 1010.8 |
| 20260905020509 | 89 | 126 | 0.0 | 0.0 | 0.00 | 0.00 | 0.00 | 71 | 1010.8 |
| 20260905020009 | 89 | 126 | 0.0 | 0.0 | 0.00 | 0.00 | 0.00 | 70 | 1010.8 |
| 20260905015509 | 89 | 126 | 0.0 | 0.0 | 0.00 | 0.00 | 0.00 | 68 | 1010.7 |
| 20260905015009 | 89 | 126 | 0.0 | 0.0 | 0.00 | 0.00 | 0.00 | 67 | 1010.6 |
| 20260905014510 | 90 | 126 | 0.0 | 0.0 | 0.00 | 0.00 | 0.00 | 66 | 1010.6 |
| 20260905014009 | 90 | 126 | 0.0 | 1.0 | 0.00 | 0.00 | 0.00 | 66 | 1010.4 |
| 20260905013510 | 90 | 126 | 0.0 | 2.0 | 0.00 | 0.00 | 0.00 | 66 | 1010.4 |
| 20260905013010 | 90 | 126 | 0.0 | 2.0 | 0.00 | 0.00 | 0.00 | 66 | 1010.3 |
| 20260905012010 | 91 | 126 | 0.0 | 0.0 | 0.00 | 0.00 | 0.00 | 65 | 1010.3 |
| 20260905011510 | 91 | 126 | 0.0 | 0.0 | 0.00 | 0.00 | 0.00 | 64 | 1010.3 |
| 20260905011010 | 91 | 126 | 0.0 | 0.0 | 0.00 | 0.00 | 0.00 | 63 | 1010.3 |
| 20260905010510 | 92 | 126 | 0.0 | 2.0 | 0.00 | 0.00 | 0.00 | 63 | 1010.2 |
| 20260905005510 | 92 | 126 | 1.0 | 2.0 | 0.00 | 0.00 | 0.00 | 62 | 1010.2 |
| 20260905005010 | 93 | 126 | 0.0 | 1.0 | 0.00 | 0.00 | 0.00 | 62 | 1010.2 |
| 20260905004510 | 93 | 126 | 0.0 | 0.0 | 0.00 | 0.00 | 0.00 | 62 | 1010.3 |
| 20260905004010 | 93 | 126 | 0.0 | 3.0 | 0.00 | 0.00 | 0.00 | 62 | 1010.2 |
| 20260905003509 | 93 | 126 | 0.0 | 3.0 | 0.00 | 0.00 | 0.00 | 61 | 1010.0 |
| 20260905003010 | 93 | 126 | 1.0 | 3.0 | 0.00 | 0.00 | 0.00 | 61 | 1010.0 |
| 20260905002510 | 93 | 134 | 0.0 | 2.0 | 0.00 | 0.00 | 0.00 | 62 | 1010.0 |
| 20260905002010 | 93 | 175 | 0.0 | 2.0 | 0.00 | 0.00 | 0.00 | 61 | 1010.1 |
| 20260905001510 | 94 | 164 | 0.0 | 3.0 | 0.00 | 0.00 | 0.00 | 61 | 1010.0 |